Rose Hill, VA

5:15 AM EDT on August 24, 2016 (GMT -0400)
Jonesville

Weather History for K0VG - April, 2013

Change the Weather History Date:

Saturday, April 20, 2013

  Actual Average (KLOZ) Record (KLOZ)
Temperature  
Mean Temperature 46 °F 58 °F  
Max Temperature 59 °F 70 °F 88 °F (1964)
Min Temperature 32 °F 46 °F 23 °F (1983)
Degree Days  
Heating Degree Days 20 8  
Month to date heating degree days 210  
Since 1 July heating degree days 4035  
Cooling Degree Days 0 1  
Month to date cooling degree days 12  
Year to date cooling degree days 15  
Moisture  
Dew Point 29 °F    
Average Humidity 57    
Maximum Humidity 100    
Minimum Humidity 25    
Precipitation  
Precipitation 0.00 in 0.14 in 1.20 in (1958)
Month to date precipitation 2.62  
Sea Level Pressure  
Sea Level Pressure 30.21 in    
Wind  
Wind Speed 4 mph (WNW)    
Max Wind Speed 12 mph    
Max Gust Speed 22 mph    
Visibility 10 miles    
Events      
T = Trace of Precipitation, MM = Missing Value Source: NWS Daily Summary

Daily Weather History Graph

Daily Weather History Graph

Search for Another Location

Airport or City:

Trip Planner

Search our weather history database for the weather conditions in past years. The results will help you decide how hot, cold, wet, or windy it might be!

Date:

Astronomy

Apr. 20, 2013 Rise Set
Actual Time 6:52 AM EDT 8:11 PM EDT
Civil Twilight 6:25 AM EDT 8:38 PM EDT
Nautical Twilight 5:52 AM EDT 9:11 PM EDT
Astronomical Twilight 5:19 AM EDT 9:45 PM EDT
Moon 3:02 PM EDT (4/20) 3:32 AM EDT (4/20)
Length of Visible Light 14h 13m
Length of Day
13h 19m
Waxing Gibbous, 71% of the Moon is Illuminated
Apr 20
Waxing Gibbous
Apr 25
Full
May 2
Last Quarter
May 9
New
May 18
First Quarter

Hourly Weather History & Observations

Time (EDT) Temp. Windchill Dew Point Humidity Pressure Visibility Wind Dir Wind Speed Gust Speed Precip Events Conditions
12:15 AM 44.6 °F 40.2 °F 32.0 °F 61% 30.08 in 10.0 mi WNW 8.1 mph - N/A   Overcast
12:35 AM 44.6 °F 41.4 °F 32.0 °F 61% 30.10 in 10.0 mi West 5.8 mph - N/A   Unknown
12:55 AM 44.6 °F 39.7 °F 32.0 °F 61% 30.11 in 10.0 mi West 9.2 mph - N/A   Overcast
1:15 AM 42.8 °F 37.0 °F 32.0 °F 66% 30.12 in 10.0 mi WNW 10.4 mph 16.1 mph N/A   Overcast
1:35 AM 42.8 °F 38.0 °F 32.0 °F 66% 30.12 in 10.0 mi WNW 8.1 mph - N/A   Overcast
1:55 AM 41.0 °F 34.7 °F 28.4 °F 61% 30.12 in 10.0 mi WNW 10.4 mph - N/A   Unknown
2:15 AM 39.2 °F 35.9 °F 28.4 °F 65% 30.12 in 10.0 mi West 4.6 mph - N/A   Clear
2:35 AM 39.2 °F - 28.4 °F 65% 30.12 in 10.0 mi Calm Calm - N/A   Clear
2:55 AM 39.2 °F 35.0 °F 28.4 °F 65% 30.12 in 10.0 mi West 5.8 mph - N/A   Clear
3:15 AM 37.4 °F 33.8 °F 28.4 °F 70% 30.12 in 10.0 mi West 4.6 mph - N/A   Clear
3:35 AM 37.4 °F - 32.0 °F 81% 30.13 in 10.0 mi Calm Calm - N/A   Clear
3:55 AM 37.4 °F - 32.0 °F 81% 30.13 in 10.0 mi Calm Calm - N/A   Clear
4:15 AM 37.4 °F - 32.0 °F 81% 30.14 in 10.0 mi Calm Calm - N/A   Unknown
4:35 AM 35.6 °F - 32.0 °F 87% 30.14 in 10.0 mi Calm Calm - N/A   Clear
4:55 AM 33.8 °F - 32.0 °F 93% 30.14 in 10.0 mi Calm Calm - N/A   Clear
5:15 AM 33.8 °F - 30.2 °F 87% 30.15 in 10.0 mi Calm Calm - N/A   Clear
5:35 AM 32.0 °F - 32.0 °F 100% 30.15 in 10.0 mi Calm Calm - N/A   Unknown
5:55 AM 32.0 °F - 32.0 °F 100% 30.16 in 10.0 mi Calm Calm - N/A   Unknown
6:15 AM 32.0 °F - 30.2 °F 93% 30.16 in 10.0 mi Calm Calm - N/A   Unknown
6:35 AM 32.0 °F - 32.0 °F 100% 30.17 in 10.0 mi Calm Calm - N/A   Clear
6:55 AM 32.0 °F - 30.2 °F 93% 30.18 in 10.0 mi Calm Calm - N/A   Clear
7:15 AM 32.0 °F - 32.0 °F 100% 30.18 in 10.0 mi Calm Calm - N/A   Clear
7:35 AM 32.0 °F - 32.0 °F 100% 30.19 in 10.0 mi Calm Calm - N/A   Clear
7:55 AM 33.8 °F - 32.0 °F 93% 30.20 in 10.0 mi Calm Calm - N/A   Clear
8:15 AM 35.6 °F - 32.0 °F 87% 30.21 in 10.0 mi Calm Calm - N/A   Clear
8:35 AM 37.4 °F - 32.0 °F 81% 30.21 in 10.0 mi Calm Calm - N/A   Clear
8:55 AM 39.2 °F - 32.0 °F 75% 30.22 in 10.0 mi Calm Calm - N/A   Clear
9:15 AM 41.0 °F 37.1 °F 30.2 °F 65% 30.23 in 10.0 mi SSW 5.8 mph - N/A   Partly Cloudy
9:35 AM 41.0 °F - 28.4 °F 61% 30.23 in 10.0 mi Calm Calm - N/A   Clear
9:55 AM 42.8 °F - 32.0 °F 66% 30.23 in 10.0 mi Calm Calm - N/A   Partly Cloudy
10:15 AM 44.6 °F - 32.0 °F 61% 30.23 in 10.0 mi Calm Calm - N/A   Scattered Clouds
10:35 AM 46.4 °F 45.2 °F 32.0 °F 57% 30.24 in 10.0 mi SW 3.5 mph - N/A   Mostly Cloudy
10:55 AM 46.4 °F 42.4 °F 26.6 °F 46% 30.24 in 10.0 mi West 8.1 mph - N/A   Mostly Cloudy
11:15 AM 48.2 °F - 26.6 °F 43% 30.24 in 10.0 mi WSW 11.5 mph 16.1 mph N/A   Scattered Clouds
11:35 AM 50.0 °F - 28.4 °F 43% 30.25 in 10.0 mi West 4.6 mph 21.9 mph N/A   Partly Cloudy
11:55 AM 50.0 °F - 26.6 °F 40% 30.25 in 10.0 mi NW 3.5 mph - N/A   Partly Cloudy
12:15 PM 50.0 °F - 26.6 °F 40% 30.24 in 10.0 mi Calm Calm - N/A   Partly Cloudy
12:35 PM 51.8 °F - 26.6 °F 38% 30.24 in 10.0 mi Calm Calm - N/A   Clear
12:55 PM 53.6 °F - 28.4 °F 38% 30.23 in 10.0 mi West 5.8 mph - N/A   Clear
1:15 PM 53.6 °F - 26.6 °F 35% 30.22 in 10.0 mi West 5.8 mph - N/A   Clear
1:35 PM 53.6 °F - 24.8 °F 33% 30.22 in 10.0 mi NW 5.8 mph - N/A   Clear
1:55 PM 53.6 °F - 26.6 °F 35% 30.22 in 10.0 mi WSW 8.1 mph - N/A   Clear
2:15 PM 55.4 °F - 28.4 °F 36% 30.21 in 10.0 mi West 6.9 mph 16.1 mph N/A   Clear
2:35 PM 55.4 °F - 26.6 °F 33% 30.21 in 10.0 mi West 5.8 mph - N/A   Partly Cloudy
2:55 PM 55.4 °F - 24.8 °F 31% 30.21 in 10.0 mi Calm Calm - N/A   Partly Cloudy
3:15 PM 57.2 °F - 26.6 °F 31% 30.21 in 10.0 mi NW 9.2 mph - N/A   Clear
3:35 PM 57.2 °F - 23.0 °F 27% 30.21 in 10.0 mi West 6.9 mph - N/A   Clear
3:55 PM 57.2 °F - 24.8 °F 29% 30.21 in 10.0 mi NW 6.9 mph - N/A   Clear
4:15 PM 57.2 °F - 23.0 °F 27% 30.21 in 10.0 mi West 5.8 mph - N/A   Clear
4:35 PM 59.0 °F - 24.8 °F 27% 30.21 in 10.0 mi SW 5.8 mph - N/A   Clear
4:55 PM 57.2 °F - 23.0 °F 27% 30.22 in 10.0 mi NW 4.6 mph - N/A   Clear
5:15 PM 57.2 °F - 24.8 °F 29% 30.21 in 10.0 mi North 3.5 mph - N/A   Clear
5:35 PM 59.0 °F - 23.0 °F 25% 30.22 in 10.0 mi WNW 4.6 mph - N/A   Clear
5:55 PM 59.0 °F - 23.0 °F 25% 30.22 in 10.0 mi WNW 5.8 mph - N/A   Clear
6:15 PM 57.2 °F - 23.0 °F 27% 30.23 in 10.0 mi WNW 5.8 mph - N/A   Clear
6:35 PM 57.2 °F - 23.0 °F 27% 30.23 in 10.0 mi West 5.8 mph - N/A   Clear
6:55 PM 57.2 °F - 23.0 °F 27% 30.23 in 10.0 mi Calm Calm - N/A   Clear
7:15 PM 55.4 °F - 24.8 °F 31% 30.23 in 10.0 mi West 5.8 mph - N/A   Clear
7:35 PM 55.4 °F - 24.8 °F 31% 30.23 in 10.0 mi WNW 3.5 mph - N/A   Clear
7:55 PM 53.6 °F - 26.6 °F 35% 30.24 in 10.0 mi Calm Calm - N/A   Clear
8:15 PM 51.8 °F - 28.4 °F 41% 30.25 in 10.0 mi Calm Calm - N/A   Unknown
8:35 PM 50.0 °F - 28.4 °F 43% 30.26 in 10.0 mi Calm Calm - N/A   Unknown
8:55 PM 50.0 °F - 28.4 °F 43% 30.27 in 10.0 mi Calm Calm - N/A   Unknown
9:15 PM 48.2 °F - 26.6 °F 43% 30.28 in 10.0 mi NW 5.8 mph - N/A   Unknown
9:35 PM 48.2 °F - 26.6 °F 43% 30.29 in 10.0 mi Calm Calm - N/A   Unknown
9:55 PM 44.6 °F - 32.0 °F 61% 30.30 in 10.0 mi Calm Calm - N/A   Unknown
10:15 PM 44.6 °F - 32.0 °F 61% 30.31 in 10.0 mi Calm Calm - N/A   Unknown
10:35 PM 42.8 °F - 32.0 °F 66% 30.32 in 10.0 mi Calm Calm - N/A   Unknown
10:55 PM 42.8 °F - 32.0 °F 66% 30.32 in 10.0 mi Calm Calm - N/A   Unknown
11:15 PM 39.2 °F - 33.8 °F 81% 30.32 in 10.0 mi Calm Calm - N/A   Unknown
11:35 PM 39.2 °F - 33.8 °F 81% 30.33 in 10.0 mi Calm Calm - N/A   Unknown
11:55 PM 37.4 °F - 33.8 °F 87% 30.34 in 10.0 mi Calm Calm - N/A   Unknown